Flag Weather past 2 weeks in Springfield, Missouri, U.S.A.

Now
34 °F

Clear.


Feels Like: 26 °F
Forecast: 33 / 57 °F
Wind: 10 mph from South

Location: Springfield Regional Airport

Current Time: Nov 27, 2014 at 10:36:06 PM

Latest Report: Nov 27, 2014 at 9:52 PM


Visibility: 10 mi

Pressure: 30.34 "Hg

Humidity: 61%

Dew point: 22 °F

Location of SpringfieldLocation

Historic Weather in Springfield — Graph

°F

Springfield temperature yesterday

Maximum temperature yesterday: 45 °F (at 11:52 AM)
Minimum temperature yesterday: 30 °F (at 12:52 AM)
Average temperature yesterday: 38 °F

Past Weeks' High & Low Weather Summary

 TemperatureHumidityPressure
High59 °F (Nov 23, 1:52 PM)96% (Nov 23, 11:52 AM)30.57 "Hg (Nov 23, 11:52 AM)
Low9 °F (Nov 18, 6:52 AM)31% (Nov 14, 3:52 PM)29.27 "Hg (Nov 23, 7:52 PM)
Average35 °F64%30.16 "Hg
* Reported Nov 12 8:52 PM — Nov 27 8:52 PM, Springfield, Weather by CustomWeather, © 2014

Note: Actual official high and low records may vary slightly from our data, if they occured in-between our weather recording intervals... More about our weather records

Advertising

Springfield weather history for previous 24 hours

 ConditionsComfort  
Time TempWeatherWind HumidityBarometerVisibility
8:52 PM
Nov 27
32 °FClear.9 mph66%30.37 "Hg10 mi
7:52 PM33 °FClear.5 mph63%30.40 "Hg10 mi
6:52 PM32 °FClear.5 mph66%30.41 "Hg10 mi
5:52 PM34 °FClear.5 mph61%30.40 "Hg10 mi
4:52 PM39 °FSunny.No wind46%30.42 "Hg10 mi
3:52 PM41 °FSunny.5 mph41%30.45 "Hg10 mi
2:52 PM42 °FSunny.5 mph41%30.45 "Hg10 mi
1:52 PM41 °FSunny.3 mph47%30.47 "Hg10 mi
12:52 PM39 °FSunny.5 mph53%30.50 "Hg10 mi
11:52 AM37 °FSunny.No wind60%30.51 "Hg10 mi
10:52 AM35 °FPassing clouds.No wind64%30.53 "Hg10 mi
10:04 AM32 °FScattered clouds.3 mph73%30.49 "Hg8 mi
9:52 AM32 °FPartly sunny.6 mph73%30.53 "Hg8 mi
8:52 AM31 °FOvercast.7 mph76%30.53 "Hg7 mi
7:52 AM30 °FOvercast.8 mph75%30.49 "Hg7 mi
7:03 AM30 °FOvercast.9 mph75%30.45 "Hg9 mi
6:52 AM30 °FOvercast.7 mph75%30.48 "Hg9 mi
5:52 AM30 °FOvercast.9 mph75%30.46 "Hg8 mi
4:52 AM30 °FOvercast.16 mph75%30.46 "Hg8 mi
3:52 AM30 °FOvercast.8 mph75%30.43 "Hg8 mi
2:52 AM30 °FMostly cloudy.17 mph79%30.43 "Hg9 mi
1:52 AM31 °FOvercast.18 mph76%30.40 "Hg9 mi
12:52 AM31 °FOvercast.16 mph76%30.38 "Hg10 mi
11:52 PM
Nov 26
32 °FOvercast.15 mph73%30.35 "Hg10 mi
10:52 PM33 °FMostly cloudy.18 mph70%30.32 "Hg10 mi
Weather by CustomWeather, © 2014

See weather overviewHow to use our weather pages